Year,Month,Day,Hour,Minute,Value (Times are PST for temperature in C)
2019,03,18,00,00,6.30
2019,03,18,00,01,6.30
2019,03,18,00,02,6.30
2019,03,18,00,03,6.30
2019,03,18,00,04,6.30
2019,03,18,00,05,6.20
2019,03,18,00,06,6.20
2019,03,18,00,07,6.20
2019,03,18,00,08,6.20
2019,03,18,00,09,6.20
2019,03,18,00,10,6.10
2019,03,18,00,11,6.10
2019,03,18,00,12,6.10
2019,03,18,00,13,6.00
2019,03,18,00,14,6.00
2019,03,18,00,15,6.00
2019,03,18,00,16,5.90
2019,03,18,00,17,5.90
2019,03,18,00,18,5.90
2019,03,18,00,19,5.90
2019,03,18,00,20,5.80
2019,03,18,00,21,5.80
2019,03,18,00,22,5.80
2019,03,18,00,23,5.80
2019,03,18,00,24,5.70
2019,03,18,00,25,5.70
2019,03,18,00,26,5.70
2019,03,18,00,27,5.70
2019,03,18,00,28,5.60
2019,03,18,00,29,5.60
2019,03,18,00,30,5.60
2019,03,18,00,31,5.50
2019,03,18,00,32,5.50
2019,03,18,00,33,5.50
2019,03,18,00,34,5.40
2019,03,18,00,35,5.40
2019,03,18,00,36,5.40
2019,03,18,00,37,5.40
2019,03,18,00,38,5.40
2019,03,18,00,39,5.40
2019,03,18,00,40,5.40
2019,03,18,00,41,5.30
2019,03,18,00,42,5.30
2019,03,18,00,43,5.30
2019,03,18,00,44,5.30
2019,03,18,00,45,5.30
2019,03,18,00,46,5.30
2019,03,18,00,47,5.30
2019,03,18,00,48,5.20
2019,03,18,00,49,5.20
2019,03,18,00,50,5.20
2019,03,18,00,51,5.20
2019,03,18,00,52,5.20
2019,03,18,00,53,5.20
2019,03,18,00,54,5.20
2019,03,18,00,55,5.20
2019,03,18,00,56,5.20
2019,03,18,00,57,5.20
2019,03,18,00,58,5.20
2019,03,18,00,59,5.20
2019,03,18,01,00,5.20
2019,03,18,01,01,5.20
2019,03,18,01,02,5.10
2019,03,18,01,03,5.10
2019,03,18,01,04,5.10
2019,03,18,01,05,5.10
2019,03,18,01,06,5.10
2019,03,18,01,07,5.10
2019,03,18,01,08,5.10
2019,03,18,01,09,5.10
2019,03,18,01,10,5.00
2019,03,18,01,11,5.00
2019,03,18,01,12,5.00
2019,03,18,01,13,5.00
2019,03,18,01,14,5.00
2019,03,18,01,15,5.00
2019,03,18,01,16,5.00
2019,03,18,01,17,5.00
2019,03,18,01,18,5.10
2019,03,18,01,19,5.00
2019,03,18,01,20,5.00
2019,03,18,01,21,5.00
2019,03,18,01,22,5.00
2019,03,18,01,23,5.00
2019,03,18,01,24,5.00
2019,03,18,01,25,4.90
2019,03,18,01,26,4.90
2019,03,18,01,27,4.90
2019,03,18,01,28,4.90
2019,03,18,01,29,4.90
2019,03,18,01,30,4.80
2019,03,18,01,31,4.80
2019,03,18,01,32,4.80
2019,03,18,01,33,4.80
2019,03,18,01,34,4.80
2019,03,18,01,35,4.80
2019,03,18,01,36,4.80
2019,03,18,01,37,4.70
2019,03,18,01,38,4.70
2019,03,18,01,39,4.70
2019,03,18,01,40,4.70
2019,03,18,01,41,4.70
2019,03,18,01,42,4.60
2019,03,18,01,43,4.60
2019,03,18,01,44,4.60
2019,03,18,01,45,4.60
2019,03,18,01,46,4.60
2019,03,18,01,47,4.50
2019,03,18,01,48,4.50
2019,03,18,01,49,4.50
2019,03,18,01,50,4.50
2019,03,18,01,51,4.50
2019,03,18,01,52,4.40
2019,03,18,01,53,4.40
2019,03,18,01,54,4.40
2019,03,18,01,55,4.40
2019,03,18,01,56,4.40
2019,03,18,01,57,4.40
2019,03,18,01,58,4.40
2019,03,18,01,59,4.40
2019,03,18,02,00,4.40
2019,03,18,02,01,4.40
2019,03,18,02,02,4.30
2019,03,18,02,03,4.30
2019,03,18,02,04,4.30
2019,03,18,02,05,4.30
2019,03,18,02,06,4.30
2019,03,18,02,07,4.30
2019,03,18,02,08,4.30
2019,03,18,02,09,4.30
2019,03,18,02,10,4.30
2019,03,18,02,11,4.30
2019,03,18,02,12,4.30
2019,03,18,02,13,4.30
2019,03,18,02,14,4.30
2019,03,18,02,15,4.30
2019,03,18,02,16,4.30
2019,03,18,02,17,4.30
2019,03,18,02,18,4.30
2019,03,18,02,19,4.30
2019,03,18,02,20,4.20
2019,03,18,02,21,4.20
2019,03,18,02,22,4.30
2019,03,18,02,23,4.30
2019,03,18,02,24,4.30
2019,03,18,02,25,4.20
2019,03,18,02,26,4.20
2019,03,18,02,27,4.20
2019,03,18,02,28,4.20
2019,03,18,02,29,4.20
2019,03,18,02,30,4.20
2019,03,18,02,31,4.10
2019,03,18,02,32,4.10
2019,03,18,02,33,4.10
2019,03,18,02,34,4.10
2019,03,18,02,35,4.10
2019,03,18,02,36,4.10
2019,03,18,02,37,4.10
2019,03,18,02,38,4.10
2019,03,18,02,39,4.10
2019,03,18,02,40,4.10
2019,03,18,02,41,4.10
2019,03,18,02,42,4.10
2019,03,18,02,43,4.20
2019,03,18,02,44,4.10
2019,03,18,02,45,4.10
2019,03,18,02,46,4.10
2019,03,18,02,47,4.10
2019,03,18,02,48,4.10
2019,03,18,02,49,4.10
2019,03,18,02,50,4.20
2019,03,18,02,51,4.20
2019,03,18,02,52,4.20
2019,03,18,02,53,4.30
2019,03,18,02,54,4.30
2019,03,18,02,55,4.30
2019,03,18,02,56,4.30
2019,03,18,02,57,4.40
2019,03,18,02,58,4.50
2019,03,18,02,59,4.60
2019,03,18,03,00,4.70
2019,03,18,03,01,4.90
2019,03,18,03,02,5.00
2019,03,18,03,03,5.20
2019,03,18,03,04,5.30
2019,03,18,03,05,5.30
2019,03,18,03,06,5.40
2019,03,18,03,07,5.40
2019,03,18,03,08,5.50
2019,03,18,03,09,5.50
2019,03,18,03,10,5.60
2019,03,18,03,11,5.70
2019,03,18,03,12,5.70
2019,03,18,03,13,5.70
2019,03,18,03,14,5.70
2019,03,18,03,15,5.70
2019,03,18,03,16,5.70
2019,03,18,03,17,5.70
2019,03,18,03,18,5.80
2019,03,18,03,19,5.80
2019,03,18,03,20,5.80
2019,03,18,03,21,5.80
2019,03,18,03,22,5.80
2019,03,18,03,23,5.90
2019,03,18,03,24,6.00
2019,03,18,03,25,6.10
2019,03,18,03,26,6.20
2019,03,18,03,27,6.30
2019,03,18,03,28,6.40
2019,03,18,03,29,6.40
2019,03,18,03,30,6.50
2019,03,18,03,31,6.50
2019,03,18,03,32,6.60
2019,03,18,03,33,6.60
2019,03,18,03,34,6.60
2019,03,18,03,35,6.60
2019,03,18,03,36,6.60
2019,03,18,03,37,6.60
2019,03,18,03,38,6.60
2019,03,18,03,39,6.70
2019,03,18,03,40,6.70
2019,03,18,03,41,6.70
2019,03,18,03,42,6.70
2019,03,18,03,43,6.70
2019,03,18,03,44,6.70
2019,03,18,03,45,6.70
2019,03,18,03,46,6.80
2019,03,18,03,47,6.80
2019,03,18,03,48,6.80
2019,03,18,03,49,6.80
2019,03,18,03,50,6.70
2019,03,18,03,51,6.70
2019,03,18,03,52,6.60
2019,03,18,03,53,6.60
2019,03,18,03,54,6.60
2019,03,18,03,55,6.60
2019,03,18,03,56,6.60
2019,03,18,03,57,6.50
2019,03,18,03,58,6.50
2019,03,18,03,59,6.50
2019,03,18,04,00,6.40
2019,03,18,04,01,6.40
2019,03,18,04,02,6.40
2019,03,18,04,03,6.40
2019,03,18,04,04,6.50
2019,03,18,04,05,6.50
2019,03,18,04,06,6.50
2019,03,18,04,07,6.50
2019,03,18,04,08,6.60
2019,03,18,04,09,6.60
2019,03,18,04,10,6.50
2019,03,18,04,11,6.50
2019,03,18,04,12,6.60
2019,03,18,04,13,6.70
2019,03,18,04,14,6.80
2019,03,18,04,15,7.00
2019,03,18,04,16,7.20
2019,03,18,04,17,7.40
2019,03,18,04,18,7.60
2019,03,18,04,19,7.80
2019,03,18,04,20,8.10
2019,03,18,04,21,8.40
2019,03,18,04,22,8.60
2019,03,18,04,23,8.70
2019,03,18,04,24,8.80
2019,03,18,04,25,8.80
2019,03,18,04,26,8.90
2019,03,18,04,27,9.00
2019,03,18,04,28,9.10
2019,03,18,04,29,9.20
2019,03,18,04,30,9.30
2019,03,18,04,31,9.40
2019,03,18,04,32,9.40
2019,03,18,04,33,9.40
2019,03,18,04,34,9.30
2019,03,18,04,35,9.30
2019,03,18,04,36,9.20
2019,03,18,04,37,9.20
2019,03,18,04,38,9.10
2019,03,18,04,39,9.00
2019,03,18,04,40,8.90
2019,03,18,04,41,8.90
2019,03,18,04,42,8.90
2019,03,18,04,43,8.90
2019,03,18,04,44,8.90
2019,03,18,04,45,8.90
2019,03,18,04,46,8.90
2019,03,18,04,47,8.90
2019,03,18,04,48,8.90
2019,03,18,04,49,8.80
2019,03,18,04,50,8.80
2019,03,18,04,51,8.80
2019,03,18,04,52,8.80
2019,03,18,04,53,8.70
2019,03,18,04,54,8.70
2019,03,18,04,55,8.70
2019,03,18,04,56,8.60
2019,03,18,04,57,8.60
2019,03,18,04,58,8.60
2019,03,18,04,59,8.50
2019,03,18,05,00,8.50
2019,03,18,05,01,8.50
2019,03,18,05,02,8.40
2019,03,18,05,03,8.40
2019,03,18,05,04,8.50
2019,03,18,05,05,8.50
2019,03,18,05,06,8.50
2019,03,18,05,07,8.40
2019,03,18,05,08,8.40
2019,03,18,05,09,8.30
2019,03,18,05,10,8.30
2019,03,18,05,11,8.30
2019,03,18,05,12,8.40
2019,03,18,05,13,8.50
2019,03,18,05,14,8.50
2019,03,18,05,15,8.60
2019,03,18,05,16,8.70
2019,03,18,05,17,8.70
2019,03,18,05,18,8.70
2019,03,18,05,19,8.70
2019,03,18,05,20,8.80
2019,03,18,05,21,8.90
2019,03,18,05,22,8.90
2019,03,18,05,23,8.90
2019,03,18,05,24,8.80
2019,03,18,05,25,8.80
2019,03,18,05,26,8.80
2019,03,18,05,27,8.80
2019,03,18,05,28,8.80
2019,03,18,05,29,8.90
2019,03,18,05,30,8.90
2019,03,18,05,31,9.00
2019,03,18,05,32,9.00
2019,03,18,05,33,9.00
2019,03,18,05,34,9.10
2019,03,18,05,35,9.10
2019,03,18,05,36,9.10
2019,03,18,05,37,9.10
2019,03,18,05,38,9.10
2019,03,18,05,39,9.00
2019,03,18,05,40,9.00
2019,03,18,05,41,9.00
2019,03,18,05,42,9.00
2019,03,18,05,43,8.90
2019,03,18,05,44,8.90
2019,03,18,05,45,8.90
2019,03,18,05,46,9.00
2019,03,18,05,47,9.10
2019,03,18,05,48,9.10
2019,03,18,05,49,9.10
2019,03,18,05,50,9.20
2019,03,18,05,51,9.20
2019,03,18,05,52,9.20
2019,03,18,05,53,9.10
2019,03,18,05,54,9.10
2019,03,18,05,55,9.10
2019,03,18,05,56,9.10
2019,03,18,05,57,9.10
2019,03,18,05,58,9.10
2019,03,18,05,59,9.10
2019,03,18,06,00,9.10
2019,03,18,06,01,9.10
2019,03,18,06,02,9.10
2019,03,18,06,03,9.10
2019,03,18,06,04,9.00
2019,03,18,06,05,9.00
2019,03,18,06,06,8.90
2019,03,18,06,07,8.90
2019,03,18,06,08,8.80
2019,03,18,06,09,8.80
2019,03,18,06,10,8.70
2019,03,18,06,11,8.50
2019,03,18,06,12,8.40
2019,03,18,06,13,8.20
2019,03,18,06,14,8.10
2019,03,18,06,15,8.00
2019,03,18,06,16,7.90
2019,03,18,06,17,7.90
2019,03,18,06,18,7.90
2019,03,18,06,19,7.90
2019,03,18,06,20,7.90
2019,03,18,06,21,7.80
2019,03,18,06,22,7.80
2019,03,18,06,23,7.70
2019,03,18,06,24,7.70
2019,03,18,06,25,7.70
2019,03,18,06,26,7.70
2019,03,18,06,27,7.70
2019,03,18,06,28,7.70
2019,03,18,06,29,7.70
2019,03,18,06,30,7.70
2019,03,18,06,31,7.70
2019,03,18,06,32,7.70
2019,03,18,06,33,7.80
2019,03,18,06,34,7.80
2019,03,18,06,35,7.70
2019,03,18,06,36,7.70
2019,03,18,06,37,7.70
2019,03,18,06,38,7.60
2019,03,18,06,39,7.60
2019,03,18,06,40,7.50
2019,03,18,06,41,7.30
2019,03,18,06,42,7.20
2019,03,18,06,43,7.20
2019,03,18,06,44,7.20
2019,03,18,06,45,7.20
2019,03,18,06,46,7.10
2019,03,18,06,47,7.10
2019,03,18,06,48,7.00
2019,03,18,06,49,7.00
2019,03,18,06,50,6.90
2019,03,18,06,51,6.80
2019,03,18,06,52,6.80
2019,03,18,06,53,6.80
2019,03,18,06,54,6.70
2019,03,18,06,55,6.70
2019,03,18,06,56,6.60
2019,03,18,06,57,6.60
2019,03,18,06,58,6.50
2019,03,18,06,59,6.40
2019,03,18,07,00,6.40
2019,03,18,07,01,6.40
2019,03,18,07,02,6.30
2019,03,18,07,03,6.30
2019,03,18,07,04,6.30
2019,03,18,07,05,6.30
2019,03,18,07,06,6.30
2019,03,18,07,07,6.30
2019,03,18,07,08,6.30
2019,03,18,07,09,6.40
2019,03,18,07,10,6.40
2019,03,18,07,11,6.40
2019,03,18,07,12,6.40
2019,03,18,07,13,6.40
2019,03,18,07,14,6.40
2019,03,18,07,15,6.30
2019,03,18,07,16,6.30
2019,03,18,07,17,6.20
2019,03,18,07,18,6.20
2019,03,18,07,19,6.10
2019,03,18,07,20,6.10
2019,03,18,07,21,6.10
2019,03,18,07,22,6.00
2019,03,18,07,23,6.00
2019,03,18,07,24,6.00
2019,03,18,07,25,6.00
2019,03,18,07,26,6.00
2019,03,18,07,27,6.00
2019,03,18,07,28,6.00
2019,03,18,07,29,6.00
2019,03,18,07,30,6.00
2019,03,18,07,31,6.00
2019,03,18,07,32,6.10
2019,03,18,07,33,6.10
2019,03,18,07,34,6.30
2019,03,18,07,35,6.40
2019,03,18,07,36,6.50
2019,03,18,07,37,6.50
2019,03,18,07,38,6.50
2019,03,18,07,39,6.60
2019,03,18,07,40,6.60
2019,03,18,07,41,6.60
2019,03,18,07,42,6.60
2019,03,18,07,43,6.60
2019,03,18,07,44,6.60
2019,03,18,07,45,6.60
2019,03,18,07,46,6.60
2019,03,18,07,47,6.60
2019,03,18,07,48,6.70
2019,03,18,07,49,6.70
2019,03,18,07,50,6.80
2019,03,18,07,51,6.80
2019,03,18,07,52,6.90
2019,03,18,07,53,7.00
2019,03,18,07,54,7.00
2019,03,18,07,55,7.10
2019,03,18,07,56,7.10
2019,03,18,07,57,7.20
2019,03,18,07,58,7.20
2019,03,18,07,59,7.30
2019,03,18,08,00,7.30
2019,03,18,08,01,7.40
2019,03,18,08,02,7.40
2019,03,18,08,03,7.40
2019,03,18,08,04,7.50
2019,03,18,08,05,7.50
2019,03,18,08,06,7.50
2019,03,18,08,07,7.60
2019,03,18,08,08,7.60
2019,03,18,08,09,7.70
2019,03,18,08,10,7.80
2019,03,18,08,11,7.80
2019,03,18,08,12,7.90
2019,03,18,08,13,8.00
2019,03,18,08,14,8.10
2019,03,18,08,15,8.20
2019,03,18,08,16,8.20
2019,03,18,08,17,8.30
2019,03,18,08,18,8.30
2019,03,18,08,19,8.40
2019,03,18,08,20,8.50
2019,03,18,08,21,8.60
2019,03,18,08,22,8.60
2019,03,18,08,23,8.70
2019,03,18,08,24,8.70
2019,03,18,08,25,8.80
2019,03,18,08,26,8.80
2019,03,18,08,27,8.80
2019,03,18,08,28,8.90
2019,03,18,08,29,8.90
2019,03,18,08,30,9.00
2019,03,18,08,31,9.00
2019,03,18,08,32,9.00
2019,03,18,08,33,9.10
2019,03,18,08,34,9.10
2019,03,18,08,35,9.20
2019,03,18,08,36,9.30
2019,03,18,08,37,9.30
2019,03,18,08,38,9.40
2019,03,18,08,39,9.60
2019,03,18,08,40,9.70
2019,03,18,08,41,9.80
2019,03,18,08,42,10.00
2019,03,18,08,43,10.00
2019,03,18,08,44,10.10
2019,03,18,08,45,10.20
2019,03,18,08,46,10.20
2019,03,18,08,47,10.30
2019,03,18,08,48,10.40
2019,03,18,08,49,10.40
2019,03,18,08,50,10.50
2019,03,18,08,51,10.60
2019,03,18,08,52,10.60
2019,03,18,08,53,10.70
2019,03,18,08,54,10.70
2019,03,18,08,55,10.80
2019,03,18,08,56,10.80
2019,03,18,08,57,10.90
2019,03,18,08,58,10.90
2019,03,18,08,59,11.00
2019,03,18,09,00,11.10
2019,03,18,09,01,11.10
2019,03,18,09,02,11.20
2019,03,18,09,03,11.30
2019,03,18,09,04,11.30
2019,03,18,09,05,11.40
2019,03,18,09,06,11.50
2019,03,18,09,07,11.50
2019,03,18,09,08,11.60
2019,03,18,09,09,11.60
2019,03,18,09,10,11.70
2019,03,18,09,11,11.70
2019,03,18,09,12,11.70
2019,03,18,09,13,11.80
2019,03,18,09,14,11.80
2019,03,18,09,15,11.80
2019,03,18,09,16,11.80
2019,03,18,09,17,11.90
2019,03,18,09,18,12.00
2019,03,18,09,19,12.00
2019,03,18,09,20,12.10
2019,03,18,09,21,12.10
2019,03,18,09,22,12.20
2019,03,18,09,23,12.30
2019,03,18,09,24,12.30
2019,03,18,09,25,12.30
2019,03,18,09,26,12.30
2019,03,18,09,27,12.30
2019,03,18,09,28,12.30
2019,03,18,09,29,12.30
2019,03,18,09,30,12.30
2019,03,18,09,31,12.30
2019,03,18,09,32,12.30
2019,03,18,09,33,12.30
2019,03,18,09,34,12.30
2019,03,18,09,35,12.30
2019,03,18,09,36,12.30
2019,03,18,09,37,12.30
2019,03,18,09,38,12.30
2019,03,18,09,39,12.30
2019,03,18,09,40,12.30
2019,03,18,09,41,12.30
2019,03,18,09,42,12.30
2019,03,18,09,43,12.40
2019,03,18,09,44,12.40
2019,03,18,09,45,12.40
2019,03,18,09,46,12.40
2019,03,18,09,47,12.40
2019,03,18,09,48,12.40
2019,03,18,09,49,12.40
2019,03,18,09,50,12.50
2019,03,18,09,51,12.50
2019,03,18,09,52,12.50
2019,03,18,09,53,12.60
2019,03,18,09,54,12.60
2019,03,18,09,55,12.60
2019,03,18,09,56,12.60
2019,03,18,09,57,12.60
2019,03,18,09,58,12.70
2019,03,18,09,59,12.70
2019,03,18,10,00,12.80
2019,03,18,10,01,12.80
2019,03,18,10,02,12.90
2019,03,18,10,03,12.90
2019,03,18,10,04,13.00
2019,03,18,10,05,13.00
2019,03,18,10,06,13.00
2019,03,18,10,07,13.10
2019,03,18,10,08,13.00
2019,03,18,10,09,13.00
2019,03,18,10,10,13.00
2019,03,18,10,11,13.10
2019,03,18,10,12,13.10
2019,03,18,10,13,13.10
2019,03,18,10,14,13.10
2019,03,18,10,15,13.20
2019,03,18,10,16,13.20
2019,03,18,10,17,13.30
2019,03,18,10,18,13.30
2019,03,18,10,19,13.40
2019,03,18,10,20,13.40
2019,03,18,10,21,13.40
2019,03,18,10,22,13.40
2019,03,18,10,23,13.40
2019,03,18,10,24,13.40
2019,03,18,10,25,13.50
2019,03,18,10,26,13.60
2019,03,18,10,27,13.60
2019,03,18,10,28,13.60
2019,03,18,10,29,13.60
2019,03,18,10,30,13.60
2019,03,18,10,31,13.50
2019,03,18,10,32,13.40
2019,03,18,10,33,13.40
2019,03,18,10,34,13.40
2019,03,18,10,35,13.30
2019,03,18,10,36,13.30
2019,03,18,10,37,13.30
2019,03,18,10,38,13.30
2019,03,18,10,39,13.30
2019,03,18,10,40,13.40
2019,03,18,10,41,13.40
2019,03,18,10,42,13.40
2019,03,18,10,43,13.40
2019,03,18,10,44,13.40
2019,03,18,10,45,13.50
2019,03,18,10,46,13.60
2019,03,18,10,47,13.60
2019,03,18,10,48,13.70
2019,03,18,10,49,13.70
2019,03,18,10,50,13.70
2019,03,18,10,51,13.70
2019,03,18,10,52,13.70
2019,03,18,10,53,13.70
2019,03,18,10,54,13.80
2019,03,18,10,55,13.70
2019,03,18,10,56,13.70
2019,03,18,10,57,13.70
2019,03,18,10,58,13.70
2019,03,18,10,59,13.70
2019,03,18,11,00,13.70
2019,03,18,11,01,13.80
2019,03,18,11,02,13.90
2019,03,18,11,03,14.00
2019,03,18,11,04,14.00
2019,03,18,11,05,14.00
2019,03,18,11,06,14.10
2019,03,18,11,07,14.10
2019,03,18,11,08,14.20
2019,03,18,11,09,14.20
2019,03,18,11,10,14.20
2019,03,18,11,11,14.20
2019,03,18,11,12,14.30
2019,03,18,11,13,14.30
2019,03,18,11,14,14.30
2019,03,18,11,15,14.30
2019,03,18,11,16,14.40
2019,03,18,11,17,14.40
2019,03,18,11,18,14.40
2019,03,18,11,19,14.40
2019,03,18,11,20,14.40
2019,03,18,11,21,14.40
2019,03,18,11,22,14.40
2019,03,18,11,23,14.40
2019,03,18,11,24,14.40
2019,03,18,11,25,14.50
2019,03,18,11,26,14.50
2019,03,18,11,27,14.60
2019,03,18,11,28,14.50
2019,03,18,11,29,14.50
2019,03,18,11,30,14.50
2019,03,18,11,31,14.50
2019,03,18,11,32,14.50
2019,03,18,11,33,14.50
2019,03,18,11,34,14.50
2019,03,18,11,35,14.50
2019,03,18,11,36,14.50
2019,03,18,11,37,14.50
2019,03,18,11,38,14.50
2019,03,18,11,39,14.50
2019,03,18,11,40,14.50
2019,03,18,11,41,14.60
2019,03,18,11,42,14.60
2019,03,18,11,43,14.60
2019,03,18,11,44,14.50
2019,03,18,11,45,14.40
2019,03,18,11,46,14.40
2019,03,18,11,47,14.30
2019,03,18,11,48,14.30
2019,03,18,11,49,14.30
2019,03,18,11,50,14.30
2019,03,18,11,51,14.30
2019,03,18,11,52,14.30
2019,03,18,11,53,14.30
2019,03,18,11,54,14.40
2019,03,18,11,55,14.40
2019,03,18,11,56,14.40
2019,03,18,11,57,14.40
2019,03,18,11,58,14.50
2019,03,18,11,59,14.50
2019,03,18,12,00,14.60
2019,03,18,12,01,14.70
2019,03,18,12,02,14.70
2019,03,18,12,03,14.80
2019,03,18,12,04,14.90
2019,03,18,12,05,15.00
2019,03,18,12,06,15.10
2019,03,18,12,07,15.20
2019,03,18,12,08,15.20
2019,03,18,12,09,15.10
2019,03,18,12,10,15.00
2019,03,18,12,11,15.00
2019,03,18,12,12,14.90
2019,03,18,12,13,14.90
2019,03,18,12,14,14.90
2019,03,18,12,15,14.90
2019,03,18,12,16,14.90
2019,03,18,12,17,14.90
2019,03,18,12,18,14.90
2019,03,18,12,19,14.90
2019,03,18,12,20,14.80
2019,03,18,12,21,14.80
2019,03,18,12,22,14.90
2019,03,18,12,23,15.00
2019,03,18,12,24,15.10
2019,03,18,12,25,15.10
2019,03,18,12,26,15.20
2019,03,18,12,27,15.30
2019,03,18,12,28,15.30
2019,03,18,12,29,15.30
2019,03,18,12,30,15.30
2019,03,18,12,31,15.30
2019,03,18,12,32,15.30
2019,03,18,12,33,15.40
2019,03,18,12,34,15.30
2019,03,18,12,35,15.40
2019,03,18,12,36,15.40
2019,03,18,12,37,15.40
2019,03,18,12,38,15.50
2019,03,18,12,39,15.60
2019,03,18,12,40,15.60
2019,03,18,12,41,15.60
2019,03,18,12,42,15.60
2019,03,18,12,43,15.70
2019,03,18,12,44,15.70
2019,03,18,12,45,15.70
2019,03,18,12,46,15.80
2019,03,18,12,47,15.90
2019,03,18,12,48,16.00
2019,03,18,12,49,16.10
2019,03,18,12,50,16.10
2019,03,18,12,51,16.20
2019,03,18,12,52,16.30
2019,03,18,12,53,16.20
2019,03,18,12,54,16.10
2019,03,18,12,55,16.00
2019,03,18,12,56,16.00
2019,03,18,12,57,16.00
2019,03,18,12,58,16.10
2019,03,18,12,59,16.10
2019,03,18,13,00,16.10
2019,03,18,13,01,16.20
2019,03,18,13,02,16.20
2019,03,18,13,03,16.10
2019,03,18,13,04,16.10
2019,03,18,13,05,16.20
2019,03,18,13,06,16.20
2019,03,18,13,07,16.20
2019,03,18,13,08,16.30
2019,03,18,13,09,16.30
2019,03,18,13,10,16.30
2019,03,18,13,11,16.30
2019,03,18,13,12,16.30
2019,03,18,13,13,16.30
2019,03,18,13,14,16.40
2019,03,18,13,15,16.50
2019,03,18,13,16,16.50
2019,03,18,13,17,16.50
2019,03,18,13,18,16.50
2019,03,18,13,19,16.70
2019,03,18,13,20,16.70
2019,03,18,13,21,16.70
2019,03,18,13,22,16.70
2019,03,18,13,23,16.80
2019,03,18,13,24,16.90
2019,03,18,13,25,16.90
2019,03,18,13,26,16.80
2019,03,18,13,27,16.80
2019,03,18,13,28,16.70
2019,03,18,13,29,16.70
2019,03,18,13,30,16.70
2019,03,18,13,31,16.60
2019,03,18,13,32,16.70
2019,03,18,13,33,16.70
2019,03,18,13,34,16.80
2019,03,18,13,35,16.90
2019,03,18,13,36,17.00
2019,03,18,13,37,17.00
2019,03,18,13,38,17.10
2019,03,18,13,39,17.20
2019,03,18,13,40,17.30
2019,03,18,13,41,17.40
2019,03,18,13,42,17.50
2019,03,18,13,43,17.50
2019,03,18,13,44,17.40
2019,03,18,13,45,17.30
2019,03,18,13,46,17.20
2019,03,18,13,47,17.00
2019,03,18,13,48,16.80
2019,03,18,13,49,16.90
2019,03,18,13,50,17.00
2019,03,18,13,51,17.20
2019,03,18,13,52,17.20
2019,03,18,13,53,17.10
2019,03,18,13,54,17.10
2019,03,18,13,55,17.20
2019,03,18,13,56,17.20
2019,03,18,13,57,17.30
2019,03,18,13,58,17.40
2019,03,18,13,59,17.60
2019,03,18,14,00,17.70
2019,03,18,14,01,17.80
2019,03,18,14,02,17.80
2019,03,18,14,03,17.90
2019,03,18,14,04,18.00
2019,03,18,14,05,18.10
2019,03,18,14,06,18.30
2019,03,18,14,07,18.40
2019,03,18,14,08,18.40
2019,03,18,14,09,18.40
2019,03,18,14,10,18.40
2019,03,18,14,11,18.40
2019,03,18,14,12,18.40
2019,03,18,14,13,18.30
2019,03,18,14,14,18.30
2019,03,18,14,15,18.30
2019,03,18,14,16,18.10
2019,03,18,14,17,18.10
2019,03,18,14,18,18.00
2019,03,18,14,19,17.90
2019,03,18,14,20,18.00
2019,03,18,14,21,18.00
2019,03,18,14,22,18.10
2019,03,18,14,23,18.10
2019,03,18,14,24,18.20
2019,03,18,14,25,18.20
2019,03,18,14,26,18.10
2019,03,18,14,27,18.10
2019,03,18,14,28,18.10
2019,03,18,14,29,18.10
2019,03,18,14,30,18.10
2019,03,18,14,31,18.10
2019,03,18,14,32,18.00
2019,03,18,14,33,17.90
2019,03,18,14,34,17.90
2019,03,18,14,35,17.90
2019,03,18,14,36,17.90
2019,03,18,14,37,18.00
2019,03,18,14,38,18.00
2019,03,18,14,39,18.00
2019,03,18,14,40,18.00
2019,03,18,14,41,18.00
2019,03,18,14,42,17.90
2019,03,18,14,43,17.90
2019,03,18,14,44,17.90
2019,03,18,14,45,17.90
2019,03,18,14,46,17.90
2019,03,18,14,47,18.00
2019,03,18,14,48,18.00
2019,03,18,14,49,18.10
2019,03,18,14,50,18.10
2019,03,18,14,51,18.20
2019,03,18,14,52,18.30
2019,03,18,14,53,18.30
2019,03,18,14,54,18.40
2019,03,18,14,55,18.40
2019,03,18,14,56,18.50
2019,03,18,14,57,18.50
2019,03,18,14,58,18.50
2019,03,18,14,59,18.40
2019,03,18,15,00,18.30
2019,03,18,15,01,18.40
2019,03,18,15,02,18.40
2019,03,18,15,03,18.40
2019,03,18,15,04,18.50
2019,03,18,15,05,18.50
2019,03,18,15,06,18.60
2019,03,18,15,07,18.50
2019,03,18,15,08,18.40
2019,03,18,15,09,18.30
2019,03,18,15,10,18.30
2019,03,18,15,11,18.40
2019,03,18,15,12,18.50
2019,03,18,15,13,18.50
2019,03,18,15,14,18.40
2019,03,18,15,15,18.30
2019,03,18,15,16,18.40
2019,03,18,15,17,18.40
2019,03,18,15,18,18.40
2019,03,18,15,19,18.40
2019,03,18,15,20,18.40
2019,03,18,15,21,18.40
2019,03,18,15,22,18.50
2019,03,18,15,23,18.50
2019,03,18,15,24,18.50
2019,03,18,15,25,18.50
2019,03,18,15,26,18.50
2019,03,18,15,27,18.40
2019,03,18,15,28,18.40
2019,03,18,15,29,18.40
2019,03,18,15,30,18.50
2019,03,18,15,31,18.50
2019,03,18,15,32,18.60
2019,03,18,15,33,18.60
2019,03,18,15,34,18.50
2019,03,18,15,35,18.50
2019,03,18,15,36,18.40
2019,03,18,15,37,18.40
2019,03,18,15,38,18.50
2019,03,18,15,39,18.60
2019,03,18,15,40,18.60
2019,03,18,15,41,18.70
2019,03,18,15,42,18.70
2019,03,18,15,43,18.60
2019,03,18,15,44,18.60
2019,03,18,15,45,18.50
2019,03,18,15,46,18.60
2019,03,18,15,47,18.70
2019,03,18,15,48,18.70
2019,03,18,15,49,18.70
2019,03,18,15,50,18.80
2019,03,18,15,51,18.80
2019,03,18,15,52,18.90
2019,03,18,15,53,18.90
2019,03,18,15,54,18.80
2019,03,18,15,55,18.80
2019,03,18,15,56,18.70
2019,03,18,15,57,18.80
2019,03,18,15,58,18.80
2019,03,18,15,59,18.80
2019,03,18,16,00,18.80
2019,03,18,16,01,18.80
2019,03,18,16,02,18.70
2019,03,18,16,03,18.70
2019,03,18,16,04,18.60
2019,03,18,16,05,18.60
2019,03,18,16,06,18.50
2019,03,18,16,07,18.40
2019,03,18,16,08,18.40
2019,03,18,16,09,18.40
2019,03,18,16,10,18.40
2019,03,18,16,11,18.30
2019,03,18,16,12,18.30
2019,03,18,16,13,18.40
2019,03,18,16,14,18.50
2019,03,18,16,15,18.50
2019,03,18,16,16,18.50
2019,03,18,16,17,18.50
2019,03,18,16,18,18.50
2019,03,18,16,19,18.60
2019,03,18,16,20,18.60
2019,03,18,16,21,18.60
2019,03,18,16,22,18.50
2019,03,18,16,23,18.60
2019,03,18,16,24,18.60
2019,03,18,16,25,18.60
2019,03,18,16,26,18.70
2019,03,18,16,27,18.60
2019,03,18,16,28,18.60
2019,03,18,16,29,18.60
2019,03,18,16,30,18.60
2019,03,18,16,31,18.60
2019,03,18,16,32,18.70
2019,03,18,16,33,18.70
2019,03,18,16,34,18.60
2019,03,18,16,35,18.60
2019,03,18,16,36,18.50
2019,03,18,16,37,18.40
2019,03,18,16,38,18.50
2019,03,18,16,39,18.50
2019,03,18,16,40,18.50
2019,03,18,16,41,18.50
2019,03,18,16,42,18.50
2019,03,18,16,43,18.50
2019,03,18,16,44,18.60
2019,03,18,16,45,18.60
2019,03,18,16,46,18.50
2019,03,18,16,47,18.50
2019,03,18,16,48,18.50
2019,03,18,16,49,18.60
2019,03,18,16,50,18.60
2019,03,18,16,51,18.70
2019,03,18,16,52,18.70
2019,03,18,16,53,18.70
2019,03,18,16,54,18.80
2019,03,18,16,55,18.70
2019,03,18,16,56,18.70
2019,03,18,16,57,18.70
2019,03,18,16,58,18.70
2019,03,18,16,59,18.60
2019,03,18,17,00,18.40
2019,03,18,17,01,18.40
2019,03,18,17,02,18.40
2019,03,18,17,03,18.40
2019,03,18,17,04,18.30
2019,03,18,17,05,18.30
2019,03,18,17,06,18.30
2019,03,18,17,07,18.30
2019,03,18,17,08,18.20
2019,03,18,17,09,18.20
2019,03,18,17,10,18.20
2019,03,18,17,11,18.30
2019,03,18,17,12,18.30
2019,03,18,17,13,18.40
2019,03,18,17,14,18.40
2019,03,18,17,15,18.40
2019,03,18,17,16,18.40
2019,03,18,17,17,18.30
2019,03,18,17,18,18.30
2019,03,18,17,19,18.20
2019,03,18,17,20,18.20
2019,03,18,17,21,18.20
2019,03,18,17,22,18.30
2019,03,18,17,23,18.30
2019,03,18,17,24,18.20
2019,03,18,17,25,18.10
2019,03,18,17,26,18.10
2019,03,18,17,27,18.10
2019,03,18,17,28,18.10
2019,03,18,17,29,18.10
2019,03,18,17,30,18.00
2019,03,18,17,31,18.00
2019,03,18,17,32,18.00
2019,03,18,17,33,18.00
2019,03,18,17,34,18.00
2019,03,18,17,35,18.00
2019,03,18,17,36,18.00
2019,03,18,17,37,18.00
2019,03,18,17,38,18.00
2019,03,18,17,39,18.00
2019,03,18,17,40,17.90
2019,03,18,17,41,17.80
2019,03,18,17,42,17.80